Terminal Aerodrome Forecast
Issued by NWS

Home | Current Version | Previous Version | Text Only | Print | Product List | Glossary On
Versions: 1 2 3 4 5 6 7 8 9 10 11 12 13 14 15 16 17 18 19 20 21 22 23 24 25
000
FTUS45 KTWC 032325
TAFOLS
TAF
KOLS 032325Z 0400/0424 20015G23KT P6SM BKN100
     FM040200 19007KT P6SM SCT090
     FM040500 VRB03KT P6SM SCT070
     FM041500 17010KT P6SM BKN070
     FM041900 20013G22KT P6SM SCT040 BKN060=

USA.gov is the U.S. government's official web portal to all federal, state and local government web resources and services.